[[{"header":{"parameterUnit":"m.s-1","parameterCategory":1,"la1":30.2991,"la2":30.254,"lo1":-89.0895,"lo2":-89.0444,"dy":0.0017,"dx":0.0017,"nx":28,"ny":28,"refTime":"2025-07-31T03:00:00:Z","depth":0,"parameterNumber":2,"parameterNumberName":"U-component_of_WINDS"},"data":[0,0,0,0,0,0,0,0,0,0,0,0,0,0,0,0,0,0,0,0,0,0,0,0,0,0,0,0,0,0,0,0,0,0,0,0,0,0,0,0,0,0,0,0,0,0,0,0,0,0,0,0,0,0,0,0,0,0,2.7279,2.728,0,2.7402,2.7403,2.7405,2.7358,2.7355,2.7352,2.735,2.7478,2.7484,2.749,0,0,0,0,0,0,0,0,0,0,0,0,0,2.7005,2.701,2.7278,2.728,2.7282,2.7402,2.7403,2.7405,2.7359,2.7355,2.7352,2.7349,2.7476,2.7483,2.7491,0,0,0,0,0,0,0,0,0,0,0,0,0,2.7126,2.7012,2.7278,2.7273,2.7274,2.7401,2.7403,2.7405,2.7359,2.7355,2.7351,2.7347,2.7474,2.7483,2.7492,2.7632,0,0,2.7519,2.7523,0,0,0,0,0,0,0,0,2.7119,2.7136,2.7272,2.7273,2.7275,2.736,2.7354,2.7482,2.736,2.7327,2.735,2.7345,2.7442,2.7454,2.7486,2.7638,2.7644,2.752,2.7526,2.753,2.7532,0,0,0,0,0,0,0,2.7111,2.713,2.7327,2.7274,2.7276,2.7265,2.7277,2.7378,2.7407,2.7329,2.7326,2.7341,2.7442,2.7478,2.7489,2.7646,2.752,2.7528,2.7534,2.7537,2.792,2.7924,0,0,0,0,0,0,2.7101,2.7123,2.7323,2.7331,2.7185,2.7273,2.7287,2.7337,2.7406,2.7412,2.7345,2.7339,2.7464,2.7478,2.7493,2.7663,2.7529,2.7538,2.7543,2.7915,2.7921,2.7926,0,0,0,0,0,0,2.7096,2.712,2.7318,2.7226,2.7251,2.7282,2.7339,2.7342,2.7377,2.7417,2.7423,2.7376,2.7462,2.7481,2.7598,2.7667,2.7542,2.755,2.791,2.7917,2.7923,2.8003,0,0,0,0,0,0,2.7088,2.7118,2.7171,2.7228,2.7256,2.7421,2.7343,2.7347,2.7392,2.7386,2.7448,2.7454,2.746,2.7585,2.7607,2.7677,2.7557,2.7904,2.7913,2.7921,2.7995,2.8012,2.8027,0,0,0,0,0,2.7078,2.7189,2.7174,2.7199,2.7323,2.7425,2.7441,2.7445,2.7398,2.7453,2.7478,2.7452,2.7656,2.7597,2.7622,2.7696,2.7899,2.791,2.7921,2.7988,2.8009,2.8027,0,0,0,0,0,0,2.7141,2.7197,2.7181,2.7313,2.7365,2.7417,2.7485,2.7467,2.7534,2.7525,2.7527,2.7541,2.7663,2.7691,2.7625,2.7836,2.7771,2.7787,2.7813,2.7834,2.785,2.7841,2.7565,0,0,0,0,0,2.717,2.7247,2.7292,2.7404,2.7431,2.7454,2.7498,2.7497,2.755,2.7572,2.7607,2.766,2.7736,2.7786,2.7859,2.7998,2.8012,2.8061,2.8078,2.8091,2.8105,2.8181,2.8204,2.7961,2.7961,2.7961,0,0,2.7231,2.7271,2.732,2.7418,2.7458,2.7538,2.7473,2.756,2.762,2.7586,2.7699,2.7726,2.7786,2.7915,2.7974,2.7943,2.8175,2.8104,2.8115,2.8122,2.8195,2.8218,2.8238,2.7968,2.7967,2.7966,0,0,2.7384,2.7421,2.7519,2.756,2.7621,2.7635,2.7659,2.7714,2.7731,2.7844,2.7819,2.7891,2.8022,2.8066,2.8105,2.8274,2.8252,2.8297,2.8383,2.8457,2.8476,2.8493,2.8554,2.8576,2.8311,2.8311,2.8312,0,2.7452,2.7572,2.7572,2.7662,2.7706,2.7678,2.7777,2.7817,2.7899,2.793,2.7893,2.8057,2.8095,2.8235,2.8276,2.8309,2.8336,2.8291,2.8473,2.8491,2.8507,2.8564,2.8587,2.8316,2.8316,2.8315,2.8315,0,2.7653,2.7737,2.7809,2.7887,2.7939,2.8034,2.8049,2.8102,2.8096,2.8114,2.823,2.8275,2.8356,2.8389,2.8384,2.8528,2.8506,2.8472,2.8406,2.8535,2.8589,2.8612,2.8324,2.8322,2.832,2.8319,0,0,2.785,2.7926,2.7953,2.7988,2.8053,2.8118,2.8211,2.8289,2.8335,2.8392,2.847,2.8582,2.855,2.8595,2.8594,2.866,2.8791,2.8617,2.8618,2.8648,2.8953,2.8979,2.9005,2.8777,2.8781,2.8784,2.8948,0,2.8008,2.817,2.8173,2.8323,2.84,2.8374,2.8455,2.8504,2.8524,2.8593,2.8614,2.8693,2.8645,2.8672,2.8735,2.8762,2.8852,2.875,2.8851,2.8854,2.8837,2.9033,2.9061,2.9214,2.8969,2.8973,2.8976,0,2.8214,2.8277,2.8434,2.8487,2.852,2.8593,2.8665,2.8731,2.8785,2.8795,2.8845,2.8835,2.8931,2.8862,2.8994,2.8924,2.8965,2.8985,2.8991,2.9001,2.8923,2.9049,2.9263,2.9286,2.9009,2.9006,2.9004,0,2.8342,2.8466,2.8576,2.8607,2.8672,2.8724,2.8753,2.8804,2.885,2.8914,2.8944,2.9018,2.9059,2.9116,2.9126,2.9075,2.9259,2.9191,2.9271,2.9271,2.9311,2.9309,2.9535,2.9337,2.9337,2.9336,2.9336,0,2.8519,2.8616,2.8634,2.8702,2.8811,2.8813,2.8921,2.8946,2.8992,2.9064,2.9046,2.9115,2.9124,2.9195,2.9204,2.9312,2.9331,2.9342,2.9343,2.9344,2.9343,2.9372,2.9362,2.9342,2.9341,2.934,2.9339,0,2.8681,2.8696,2.8815,2.8866,2.8881,2.8959,2.9003,2.9068,2.9086,2.9178,2.92,2.9228,2.9311,2.9326,2.9425,2.943,2.956,2.955,2.9542,2.9541,2.962,2.9612,2.9873,2.9907,2.9686,2.9688,2.969,0,2.8793,2.8867,2.8926,2.8973,2.9005,2.9081,2.9128,2.9134,2.9184,2.9252,2.9309,2.939,2.9455,2.9589,2.9618,2.9694,2.9686,2.9772,2.9697,2.9696,2.9688,2.9684,2.9691,2.9787,2.9789,2.9791,2.9793,0,2.899,2.8994,2.9063,2.9135,2.9192,2.9249,2.9303,2.9343,2.9355,2.9413,2.9497,2.9548,2.9647,2.9728,2.9803,2.9834,2.9816,2.9816,2.9838,2.984,2.9832,2.9838,2.9581,2.981,2.9808,2.9807,2.9806,2.9805,2.9131,2.9196,2.9247,2.9324,2.9365,2.9416,2.948,2.9505,2.9575,2.9656,2.9655,2.9748,2.9801,2.9899,2.9935,3.0008,2.998,3.0013,3.0021,3.0029,3.0037,2.982,3.0021,3.0021,3.002,3.002,3.002,0,2.9328,2.936,2.943,2.9506,2.9567,2.9544,2.9602,2.9655,2.9736,2.9787,2.9851,2.9948,3.0026,3.0061,3.0138,3.019,3.0184,3.021,3.0207,3.0214,3.0057,3.003,3.0214,3.0214,3.0214,3.0214,3.0214,3.0214,2.9438,2.9546,2.9556,2.9685,2.9716,2.9806,2.9841,2.9888,2.9928,3.0037,3.0102,3.0124,3.0168,3.0248,3.0319,3.0328,3.0357,3.0388,3.0393,3.0245,3.0225,3.0207,3.0181,3.0394,3.0394,3.0544,3.0545,3.0546]},{"header":{"parameterUnit":"m.s-1","parameterCategory":1,"la1":30.2991,"la2":30.254,"lo1":-89.0895,"lo2":-89.0444,"dy":0.0017,"dx":0.0017,"nx":28,"ny":28,"refTime":"2025-07-31T03:00:00:Z","depth":0,"parameterNumber":3,"parameterNumberName":"V-component_of_WINDS"},"data":[0,0,0,0,0,0,0,0,0,0,0,0,0,0,0,0,0,0,0,0,0,0,0,0,0,0,0,0,0,0,0,0,0,0,0,0,0,0,0,0,0,0,0,0,0,0,0,0,0,0,0,0,0,0,0,0,0,0,-1.3633,-1.3633,0,-1.3626,-1.3626,-1.3626,-1.3611,-1.3611,-1.3611,-1.3611,-1.3603,-1.3603,-1.3603,0,0,0,0,0,0,0,0,0,0,0,0,0,-1.3635,-1.3635,-1.3633,-1.3633,-1.3633,-1.3626,-1.3626,-1.3626,-1.3611,-1.3611,-1.3611,-1.361,-1.3603,-1.3603,-1.3603,0,0,0,0,0,0,0,0,0,0,0,0,0,-1.3632,-1.3635,-1.3633,-1.3625,-1.3624,-1.3626,-1.3626,-1.3626,-1.3612,-1.3611,-1.3611,-1.361,-1.3603,-1.3603,-1.3603,-1.3612,0,0,-1.3604,-1.3604,0,0,0,0,0,0,0,0,-1.3632,-1.3632,-1.3626,-1.3626,-1.3625,-1.3619,-1.3624,-1.3621,-1.3612,-1.3616,-1.3611,-1.361,-1.3609,-1.3608,-1.3608,-1.3612,-1.3612,-1.3604,-1.3604,-1.3604,-1.3604,0,0,0,0,0,0,0,-1.3632,-1.3632,-1.363,-1.3626,-1.3625,-1.3622,-1.3621,-1.3623,-1.3615,-1.3616,-1.3615,-1.3614,-1.3608,-1.3608,-1.3608,-1.3612,-1.3604,-1.3604,-1.3604,-1.3604,-1.3623,-1.3623,0,0,0,0,0,0,-1.3634,-1.3632,-1.3631,-1.363,-1.3628,-1.3622,-1.3621,-1.3621,-1.3615,-1.3614,-1.3615,-1.3614,-1.3608,-1.3608,-1.3607,-1.3617,-1.3604,-1.3604,-1.3604,-1.3622,-1.3623,-1.3623,0,0,0,0,0,0,-1.3634,-1.3634,-1.3631,-1.3631,-1.363,-1.3623,-1.3623,-1.3622,-1.3621,-1.3614,-1.3612,-1.3616,-1.3608,-1.3607,-1.3611,-1.3617,-1.3604,-1.3604,-1.3622,-1.3622,-1.3623,-1.3637,0,0,0,0,0,0,-1.3634,-1.3634,-1.3637,-1.3631,-1.3631,-1.3635,-1.3623,-1.3622,-1.3621,-1.362,-1.3615,-1.3613,-1.3607,-1.3611,-1.3611,-1.3617,-1.3604,-1.3621,-1.3622,-1.3623,-1.3636,-1.3638,-1.364,0,0,0,0,0,-1.3634,-1.3641,-1.3637,-1.3637,-1.3634,-1.3635,-1.3635,-1.3628,-1.3622,-1.3625,-1.3621,-1.3613,-1.3616,-1.3612,-1.3612,-1.3617,-1.3621,-1.3622,-1.3623,-1.3635,-1.3638,-1.364,0,0,0,0,0,0,-1.3648,-1.364,-1.3636,-1.3641,-1.3639,-1.3633,-1.3636,-1.3631,-1.363,-1.3628,-1.362,-1.3619,-1.3624,-1.3621,-1.3616,-1.3626,-1.3617,-1.3619,-1.3627,-1.3629,-1.3631,-1.3631,-1.3604,0,0,0,0,0,-1.3652,-1.3653,-1.3647,-1.3652,-1.3651,-1.3644,-1.3644,-1.3639,-1.3636,-1.3635,-1.3631,-1.3628,-1.3629,-1.3629,-1.3629,-1.3636,-1.3635,-1.364,-1.3642,-1.3644,-1.3644,-1.3647,-1.365,-1.3627,-1.3627,-1.3627,0,0,-1.3659,-1.3655,-1.3657,-1.3655,-1.3652,-1.3654,-1.3643,-1.3645,-1.3646,-1.3635,-1.3638,-1.3636,-1.3632,-1.3638,-1.364,-1.3636,-1.365,-1.3645,-1.3646,-1.3646,-1.3649,-1.3651,-1.3653,-1.3627,-1.3627,-1.3627,0,0,-1.3674,-1.3671,-1.3675,-1.3673,-1.367,-1.3665,-1.3666,-1.3661,-1.3658,-1.3662,-1.3654,-1.3655,-1.3656,-1.3654,-1.3653,-1.3667,-1.3661,-1.3668,-1.3677,-1.3681,-1.3682,-1.3684,-1.3688,-1.369,-1.3669,-1.3669,-1.3669,0,-1.3683,-1.3685,-1.3678,-1.3681,-1.368,-1.3671,-1.3675,-1.3673,-1.367,-1.367,-1.3665,-1.3666,-1.3663,-1.3668,-1.3671,-1.3671,-1.3672,-1.3668,-1.3683,-1.3684,-1.3685,-1.369,-1.3691,-1.367,-1.3669,-1.3669,-1.3669,0,-1.3697,-1.3699,-1.3702,-1.3699,-1.3699,-1.3703,-1.3696,-1.3697,-1.3692,-1.3688,-1.3692,-1.3688,-1.3687,-1.3688,-1.3684,-1.3692,-1.369,-1.3684,-1.3676,-1.3689,-1.3692,-1.3694,-1.3671,-1.367,-1.367,-1.367,0,0,-1.3718,-1.3712,-1.3714,-1.3712,-1.3708,-1.3709,-1.3712,-1.3711,-1.3712,-1.3711,-1.3713,-1.3714,-1.3709,-1.3708,-1.3703,-1.3706,-1.3717,-1.37,-1.37,-1.3702,-1.3726,-1.3729,-1.3731,-1.3713,-1.3714,-1.3714,-1.3726,0,-1.3731,-1.3736,-1.373,-1.3736,-1.3737,-1.3728,-1.3731,-1.3729,-1.3726,-1.3726,-1.3723,-1.3724,-1.3717,-1.3716,-1.3719,-1.3715,-1.3721,-1.3714,-1.3715,-1.3715,-1.3714,-1.3733,-1.3737,-1.3749,-1.3727,-1.3728,-1.3728,0,-1.3746,-1.3745,-1.3751,-1.3747,-1.3747,-1.3749,-1.3748,-1.3749,-1.3747,-1.3744,-1.3743,-1.3738,-1.3741,-1.3733,-1.3737,-1.3732,-1.3732,-1.3731,-1.3731,-1.373,-1.3721,-1.3732,-1.3752,-1.3753,-1.373,-1.373,-1.373,0,-1.376,-1.376,-1.3764,-1.3763,-1.3758,-1.376,-1.3758,-1.3756,-1.3755,-1.3755,-1.3754,-1.3754,-1.3754,-1.3754,-1.3748,-1.3744,-1.3753,-1.3745,-1.375,-1.375,-1.3751,-1.3751,-1.3771,-1.3753,-1.3753,-1.3753,-1.3753,0,-1.3774,-1.3777,-1.377,-1.3772,-1.3776,-1.377,-1.3774,-1.3771,-1.3769,-1.3771,-1.3764,-1.3766,-1.3759,-1.376,-1.3756,-1.3759,-1.3759,-1.3757,-1.3755,-1.3757,-1.3757,-1.3756,-1.3754,-1.3754,-1.3753,-1.3753,-1.3753,0,-1.3789,-1.3784,-1.3788,-1.3783,-1.3782,-1.3785,-1.3782,-1.3783,-1.378,-1.3782,-1.3782,-1.3777,-1.3778,-1.3773,-1.3772,-1.377,-1.3775,-1.3773,-1.3775,-1.3774,-1.3779,-1.3779,-1.3798,-1.38,-1.3782,-1.3783,-1.3783,0,-1.3798,-1.38,-1.3796,-1.3797,-1.3795,-1.3796,-1.3796,-1.3791,-1.3791,-1.3789,-1.3791,-1.3791,-1.3791,-1.3792,-1.3789,-1.3788,-1.3786,-1.3793,-1.3785,-1.3787,-1.3785,-1.3784,-1.3784,-1.3794,-1.3794,-1.3794,-1.3794,0,-1.3813,-1.3811,-1.3811,-1.381,-1.381,-1.381,-1.3809,-1.381,-1.3803,-1.3804,-1.3805,-1.3805,-1.3805,-1.3805,-1.3804,-1.3802,-1.3797,-1.3797,-1.3798,-1.3798,-1.38,-1.3798,-1.3778,-1.3796,-1.3796,-1.3796,-1.3795,-1.3795,-1.3825,-1.3827,-1.3824,-1.3824,-1.3823,-1.3822,-1.3824,-1.3821,-1.3821,-1.3821,-1.3818,-1.3819,-1.3817,-1.3816,-1.3814,-1.3815,-1.3812,-1.3814,-1.3814,-1.3814,-1.3815,-1.38,-1.3815,-1.3815,-1.3815,-1.3815,-1.3815,0,-1.3839,-1.3837,-1.3838,-1.3836,-1.3837,-1.3832,-1.3831,-1.3832,-1.3833,-1.3832,-1.3832,-1.3833,-1.3833,-1.383,-1.3829,-1.3831,-1.3828,-1.3831,-1.383,-1.383,-1.3818,-1.3817,-1.3833,-1.3833,-1.3833,-1.3833,-1.3833,-1.3833,-1.3846,-1.3849,-1.3847,-1.3849,-1.3847,-1.3848,-1.3848,-1.3847,-1.3846,-1.3847,-1.3848,-1.3846,-1.3843,-1.3843,-1.3843,-1.3843,-1.3842,-1.3846,-1.3844,-1.3832,-1.3831,-1.3829,-1.3828,-1.3846,-1.3846,-1.3855,-1.3855,-1.3855]}]]